Location: Kalisz
(51.7636°N, 18.0893°E)
Time: 00:33:57
(UTC+02:00)

ISS - Pass Details

Date: 22 March 2019
Orbit: 408 x 410 km, 51.6° (Epoch: 18 April)

Event Time Altitude Azimuth Distance (km) Brightness Sun altitude
Rises 19:32:33 0° 213° (SSW) 2,328 0.2 -14.3°
Reaches altitude 10° 19:34:56 10° 198° (SSW) 1,470 -1.0 -14.6°
Enters shadow 19:36:55 20° 162° (SSE) 999 -2.2 -14.9°
